Flag for U.S.A. Weather past 2 weeks in Cumberland, Maryland, U.S.A.

Now
67 °F

Sunny.


Feels Like: 67 °F
Forecast: 47 / 72 °F
Wind: 10 mph from Northwest

Location: Eastern West Virginia Regional Airport

Current Time: May 22, 2015 at 1:07:06 PM

Latest Report: May 22, 2015 at 11:53 AM


Visibility: 10 mi

Pressure: 30.11 "Hg

Humidity: 41%

Dew point: 42 °F

Location of CumberlandLocation

Historic Weather in Cumberland — Graph

°F

Cumberland temperature yesterday

Maximum temperature yesterday: 55 °F (at 5:53 PM)
Minimum temperature yesterday: 52 °F (at 12:53 AM)
Average temperature yesterday: 53 °F

Past Weeks' High & Low Weather Summary

 TemperatureHumidityPressure
High87 °F (May 18, 2:53 PM)97% (May 10, 2:53 AM)30.48 "Hg (May 10, 2:53 AM)
Low43 °F (May 22, 5:53 AM)28% (May 12, 8:53 PM)29.85 "Hg (May 19, 6:53 PM)
Average67 °F69%30.11 "Hg
* Reported May 7 11:53 AM — May 22 11:53 AM, Cumberland, Weather by CustomWeather, © 2015

Note: Actual official high and low records may vary slightly from our data, if they occured in-between our weather recording intervals... More about our weather records

Advertising

Cumberland weather history for previous 24 hours

 ConditionsComfort  
Time TempWeatherWind HumidityBarometerVisibility
11:53 AM
Fri, May 22
67 °FSunny.10 mph41%30.11 "Hg10 mi
10:53 AM64 °FSunny.18 mph41%30.11 "Hg10 mi
9:53 AM61 °FSunny.8 mph52%30.11 "Hg10 mi
8:53 AM58 °FSunny.13 mph54%30.10 "Hg10 mi
7:53 AM53 °FSunny.6 mph69%30.09 "Hg10 mi
6:53 AM47 °FSunny.5 mph86%30.06 "Hg10 mi
5:53 AM43 °FClear.5 mph89%30.06 "Hg8 mi
4:53 AM48 °FClear.No wind77%30.04 "Hg10 mi
3:53 AM50 °FClear.5 mph71%30.02 "Hg10 mi
2:53 AM51 °FClear.9 mph71%30.01 "Hg10 mi
1:53 AM52 °FOvercast.10 mph75%30.01 "Hg10 mi
12:53 AM52 °FClear.10 mph77%29.99 "Hg10 mi
11:53 PM
Thu, May 21
53 °FPassing clouds.15 mph74%29.99 "Hg10 mi
10:53 PM54 °FOvercast.8 mph86%29.98 "Hg10 mi
9:53 PM53 °FFog.No wind93%29.97 "Hg5 mi
9:03 PM53 °FLight rain. Fog.3 mph89%29.96 "Hg2 mi
7:53 PM54 °FOvercast.No wind83%29.95 "Hg2 mi
6:53 PM55 °FMostly cloudy.No wind80%29.93 "Hg10 mi
5:53 PM55 °FOvercast.No wind80%29.93 "Hg10 mi
4:53 PM54 °FOvercast.3 mph83%29.92 "Hg10 mi
3:53 PM54 °FOvercast.5 mph86%29.93 "Hg10 mi
2:53 PM53 °FFog.8 mph86%29.94 "Hg5 mi
2:00 PM54 °FFog.5 mph86%29.96 "Hg5 mi
Weather by CustomWeather, © 2015

See weather overviewHow to use our weather pages